DW2659 Weather Reports


Display with metric or nautical units.
time (UTC)temp
F
wind
direction
speed
MPH
gust
MPH
rain 1hr
in
rain 24hr
in
rain mn
in
humidity
%
barometer
mb
20260903195404 100 98 1.0 3.0 0.00 0.00 0.00 46 1015.6
20260903194904 99 355 1.0 2.0 0.00 0.00 0.00 46 1015.6
20260903194404 98 49 0.0 2.0 0.00 0.00 0.00 49 1016.2
20260903193904 98 146 1.0 2.0 0.00 0.00 0.00 45 1016.2
20260903193404 97 78 1.0 3.0 0.00 0.00 0.00 47 1016.2
20260903192904 98 55 1.0 3.0 0.00 0.00 0.00 47 1016.2
20260903192405 98 49 1.0 3.0 0.00 0.00 0.00 48 1016.2
20260903191403 97 28 2.0 3.0 0.00 0.00 0.00 52 1016.2
20260903190905 96 44 1.0 2.0 0.00 0.00 0.00 50 1016.2
20260903190404 97 44 1.0 2.0 0.00 0.00 0.00 49 1016.2
20260903185904 97 51 1.0 3.0 0.00 0.00 0.00 47 1016.2
20260903185404 99 68 2.0 5.0 0.00 0.00 0.00 47 1016.2
20260903184404 100 333 1.0 3.0 0.00 0.00 0.00 45 1016.4
20260903183403 100 30 1.0 3.0 0.00 0.00 0.00 44 1016.4
20260903182904 101 267 3.0 5.0 0.00 0.00 0.00 42 1016.7
20260903181403 99 17 1.0 3.0 0.00 0.00 0.00 45 1016.7
20260903180905 98 41 1.0 3.0 0.00 0.00 0.00 46 1016.7
20260903180404 98 5 1.0 5.0 0.00 0.00 0.00 46 1016.8
20260903175904 99 244 3.0 5.0 0.00 0.00 0.00 45 1016.8
20260903175405 98 22 2.0 3.0 0.00 0.00 0.00 46 1016.8
20260903174904 98 291 1.0 3.0 0.00 0.00 0.00 47 1016.8
20260903174403 97 31 2.0 7.0 0.00 0.00 0.00 49 1017.1
20260903173905 97 19 1.0 3.0 0.00 0.00 0.00 51 1017.1
20260903173403 97 221 1.0 3.0 0.00 0.00 0.00 50 1017.1
20260903172904 98 247 1.0 3.0 0.00 0.00 0.00 47 1017.2
20260903172405 98 11 1.0 3.0 0.00 0.00 0.00 50 1017.3
20260903171904 98 331 0.0 3.0 0.00 0.00 0.00 49 1017.3
20260903171404 97 42 1.0 3.0 0.00 0.00 0.00 51 1017.6
20260903170404 97 155 1.0 3.0 0.00 0.00 0.00 48 1017.6
20260903165903 96 163 2.0 3.0 0.00 0.00 0.00 46 1017.7
20260903164904 96 87 1.0 3.0 0.00 0.00 0.00 49 1017.7
20260903164404 95 40 1.0 3.0 0.00 0.00 0.00 51 1018.0
20260903163905 95 318 1.0 3.0 0.00 0.00 0.00 53 1018.0
20260903163404 95 132 2.0 3.0 0.00 0.00 0.00 52 1018.0
20260903162904 95 72 2.0 3.0 0.00 0.00 0.00 54 1018.0
20260903162406 94 148 0.0 3.0 0.00 0.00 0.00 54 1018.0
20260903161404 94 173 2.0 3.0 0.00 0.00 0.00 54 1018.1
20260903160905 93 332 1.0 3.0 0.00 0.00 0.00 58 1018.1
20260903155904 94 43 1.0 3.0 0.00 0.00 0.00 55 1018.1
20260903154903 94 46 1.0 3.0 0.00 0.00 0.00 57 1018.1
20260903154404 93 120 0.0 3.0 0.00 0.00 0.00 57 1018.0
20260903153905 93 139 2.0 3.0 0.00 0.00 0.00 57 1018.0
20260903152904 93 16 1.0 3.0 0.00 0.00 0.00 59 1018.0
20260903152405 92 46 2.0 3.0 0.00 0.00 0.00 58 1018.0
20260903151904 92 81 1.0 2.0 0.00 0.00 0.00 56 1018.0
20260903151404 92 30 1.0 2.0 0.00 0.00 0.00 57 1018.1
20260903150404 92 21 1.0 3.0 0.00 0.00 0.00 62 1018.1
20260903145904 91 60 1.0 2.0 0.00 0.00 0.00 62 1018.0
20260903144904 90 91 1.0 2.0 0.00 0.00 0.00 64 1018.0
20260903144404 90 52 1.0 3.0 0.00 0.00 0.00 64 1018.0
20260903143905 90 60 1.0 3.0 0.00 0.00 0.00 63 1018.0
20260903143404 89 102 1.0 3.0 0.00 0.00 0.00 63 1018.0
20260903142904 89 122 2.0 5.0 0.00 0.00 0.00 62 1018.0
20260903142405 88 144 2.0 5.0 0.00 0.00 0.00 62 1018.0
20260903141904 88 152 4.0 6.0 0.00 0.00 0.00 63 1018.0
20260903141402 87 193 1.0 3.0 0.00 0.00 0.00 65 1018.0
20260903140402 86 103 1.0 3.0 0.00 0.00 0.00 70 1018.1
20260903135902 86 194 1.0 5.0 0.00 0.00 0.00 69 1018.1
20260903135403 85 149 2.0 3.0 0.00 0.00 0.00 69 1018.1
20260903134402 84 302 0.0 0.0 0.00 0.00 0.00 75 1018.1
20260903133904 84 349 0.0 0.0 0.00 0.00 0.00 74 1018.1
20260903133402 83 349 0.0 0.0 0.00 0.00 0.00 77 1018.1
20260903132903 82 349 0.0 0.0 0.00 0.00 0.00 78 1018.2
20260903132404 81 349 0.0 0.0 0.00 0.00 0.00 80 1018.2
20260903131902 80 349 0.0 0.0 0.00 0.00 0.00 84 1018.2
20260903131403 79 349 0.0 0.0 0.00 0.00 0.00 86 1018.2
20260903130402 77 349 0.0 0.0 0.00 0.00 0.00 90 1018.2
20260903125902 76 349 0.0 0.0 0.00 0.00 0.00 92 1018.2
20260903125404 75 349 0.0 0.0 0.00 0.00 0.00 93 1018.2
20260903124902 75 349 0.0 0.0 0.00 0.00 0.00 93 1018.2
20260903123904 74 349 0.0 0.0 0.00 0.00 0.00 94 1018.3
20260903123402 73 349 0.0 0.0 0.00 0.00 0.00 94 1018.3
20260903122902 73 349 0.0 0.0 0.00 0.00 0.00 94 1018.2
20260903122404 73 349 0.0 0.0 0.00 0.00 0.00 94 1018.2
20260903121902 73 349 0.0 0.0 0.00 0.00 0.00 93 1018.2
20260903121403 72 349 0.0 0.0 0.00 0.00 0.00 94 1018.2
20260903120903 72 349 0.0 0.0 0.00 0.00 0.00 94 1018.2
20260903120403 72 349 0.0 0.0 0.00 0.00 0.00 94 1018.2
20260903115902 72 349 0.0 0.0 0.00 0.00 0.00 93 1018.1
20260903115403 72 349 0.0 0.0 0.00 0.00 0.00 93 1017.8
20260903114902 72 349 0.0 0.0 0.00 0.00 0.00 93 1017.8
20260903114403 72 349 0.0 0.0 0.00 0.00 0.00 93 1017.8
20260903113903 72 349 0.0 0.0 0.00 0.00 0.00 93 1017.8
20260903113403 72 349 0.0 0.0 0.00 0.00 0.00 93 1017.8
20260903112902 72 349 0.0 0.0 0.00 0.00 0.00 93 1017.7
20260903112403 72 349 0.0 0.0 0.00 0.00 0.00 93 1017.7
20260903111904 72 349 0.0 0.0 0.00 0.00 0.00 93 1017.7
20260903111403 72 349 0.0 0.0 0.00 0.00 0.00 93 1017.5
20260903110403 72 349 0.0 0.0 0.00 0.00 0.00 93 1017.5
20260903105902 72 349 0.0 0.0 0.00 0.00 0.00 92 1017.2
20260903104402 72 349 0.0 0.0 0.00 0.00 0.00 92 1017.2
20260903103903 72 349 0.0 0.0 0.00 0.00 0.00 92 1017.2
20260903102903 72 349 0.0 0.0 0.00 0.00 0.00 92 1017.1
20260903102402 72 349 0.0 0.0 0.00 0.00 0.00 92 1017.1
20260903101904 72 349 0.0 0.0 0.00 0.00 0.00 92 1017.1
20260903101402 72 349 0.0 0.0 0.00 0.00 0.00 92 1017.0
20260903100903 72 349 0.0 0.0 0.00 0.00 0.00 92 1017.0
20260903100405 72 349 0.0 0.0 0.00 0.00 0.00 92 1017.0
20260903095902 72 349 0.0 0.0 0.00 0.00 0.00 92 1017.2
20260903095403 72 349 0.0 0.0 0.00 0.00 0.00 92 1017.2
20260903094904 72 349 0.0 0.0 0.00 0.00 0.00 92 1017.2
20260903094402 72 349 0.0 0.0 0.00 0.00 0.00 92 1017.1
20260903093902 72 349 0.0 0.0 0.00 0.00 0.00 92 1017.1
20260903092903 72 349 0.0 0.0 0.00 0.00 0.00 92 1017.2
20260903092403 72 349 0.0 0.0 0.00 0.00 0.00 92 1017.2
20260903091403 73 349 0.0 0.0 0.00 0.00 0.00 92 1017.1
20260903090903 73 349 0.0 0.0 0.00 0.00 0.00 92 1017.1
20260903090402 73 349 0.0 0.0 0.00 0.00 0.00 92 1017.1
20260903085904 73 349 0.0 0.0 0.00 0.00 0.00 91 1017.2
20260903085402 73 349 0.0 0.0 0.00 0.00 0.00 91 1017.2
20260903084903 73 349 0.0 0.0 0.00 0.00 0.00 91 1017.1
20260903084403 73 349 0.0 0.0 0.00 0.00 0.00 91 1017.2
20260903083903 73 349 0.0 0.0 0.00 0.00 0.00 92 1017.2
20260903083402 73 349 0.0 0.0 0.00 0.00 0.00 91 1017.2
20260903082904 73 349 0.0 0.0 0.00 0.00 0.00 91 1017.2
20260903082403 73 349 0.0 0.0 0.00 0.00 0.00 91 1017.2
20260903081903 73 349 0.0 0.0 0.00 0.00 0.00 91 1017.2
20260903081402 73 349 0.0 0.0 0.00 0.00 0.00 91 1017.0
20260903080904 73 349 0.0 0.0 0.00 0.00 0.00 91 1017.0
20260903080402 73 349 0.0 0.0 0.00 0.00 0.00 91 1017.0
20260903075903 73 349 0.0 0.0 0.00 0.00 0.00 91 1017.1
20260903074902 73 349 0.0 0.0 0.00 0.00 0.00 90 1017.1
20260903074403 73 349 0.0 0.0 0.00 0.00 0.00 90 1016.9
20260903073404 73 349 0.0 0.0 0.00 0.00 0.00 90 1016.9
20260903072902 73 349 0.0 0.0 0.00 0.00 0.00 90 1016.8
20260903072403 73 349 0.0 0.0 0.00 0.00 0.00 90 1016.8
20260903071904 74 349 0.0 0.0 0.00 0.00 0.00 90 1016.8
20260903071402 74 349 0.0 0.0 0.00 0.00 0.00 90 1016.8
20260903070903 74 349 0.0 0.0 0.00 0.00 0.00 90 1016.8
20260903070403 74 349 0.0 0.0 0.00 0.00 0.00 90 1016.8
20260903065404 74 349 0.0 0.0 0.00 0.00 0.00 90 1016.8
20260903064903 74 349 0.0 0.0 0.00 0.00 0.00 90 1016.8
20260903064403 74 349 0.0 0.0 0.00 0.00 0.00 89 1016.9
20260903063903 74 349 0.0 0.0 0.00 0.00 0.00 89 1016.9
20260903063403 74 349 0.0 0.0 0.00 0.00 0.00 89 1016.9
20260903062903 74 349 0.0 0.0 0.00 0.00 0.00 89 1016.9
20260903062405 74 348 0.0 0.0 0.00 0.00 0.00 89 1016.9
20260903061903 74 349 0.0 0.0 0.00 0.00 0.00 89 1016.9
20260903061403 74 349 0.0 0.0 0.00 0.00 0.00 89 1017.0
20260903060902 74 349 0.0 0.0 0.00 0.00 0.00 89 1017.0
20260903055403 74 349 0.0 0.0 0.00 0.00 0.00 88 1017.0
20260903054904 74 349 0.0 0.0 0.00 0.00 0.00 88 1017.0
20260903054403 75 349 0.0 0.0 0.00 0.00 0.00 88 1017.0
20260903053903 75 349 0.0 0.0 0.00 0.00 0.00 88 1017.0
20260903053404 75 349 0.0 0.0 0.00 0.00 0.00 88 1017.0
20260903052903 75 349 0.0 0.0 0.00 0.00 0.00 88 1017.0
20260903052402 75 349 0.0 0.0 0.00 0.00 0.00 88 1017.0
20260903051404 75 349 0.0 0.0 0.00 0.00 0.00 87 1017.0
20260903045904 75 349 0.0 0.0 0.00 0.00 0.00 87 1017.2
20260903045403 75 349 0.0 0.0 0.00 0.00 0.00 86 1017.2
20260903044903 75 349 0.0 0.0 0.00 0.00 0.00 86 1017.2
20260903044403 75 349 0.0 0.0 0.00 0.00 0.00 86 1017.1
20260903043904 75 349 0.0 0.0 0.00 0.00 0.00 86 1017.1
20260903043403 76 349 0.0 0.0 0.00 0.00 0.00 86 1017.1
20260903042903 76 349 0.0 0.0 0.00 0.00 0.00 86 1017.2
20260903042405 76 349 0.0 0.0 0.00 0.00 0.00 85 1017.2
20260903041902 76 349 0.0 0.0 0.00 0.00 0.00 85 1017.1
20260903041403 76 349 0.0 0.0 0.00 0.00 0.00 85 1017.1
20260903040904 76 349 0.0 0.0 0.00 0.00 0.00 85 1017.1
20260903040403 76 349 0.0 0.0 0.00 0.00 0.00 85 1017.1
20260903035903 76 349 0.0 0.0 0.00 0.00 0.00 85 1017.2
20260903034903 76 349 0.0 0.0 0.00 0.00 0.00 84 1017.2
20260903034403 76 349 0.0 0.0 0.00 0.00 0.00 84 1017.3
20260903033904 77 349 0.0 0.0 0.00 0.00 0.00 84 1017.3
20260903033403 77 349 0.0 0.0 0.00 0.00 0.00 83 1017.3
20260903032903 77 349 0.0 0.0 0.00 0.00 0.00 83 1017.3
20260903031903 77 349 0.0 0.0 0.00 0.00 0.00 82 1017.3
20260903031403 77 349 0.0 0.0 0.00 0.00 0.00 82 1017.3
20260903030403 77 349 0.0 0.0 0.00 0.00 0.00 82 1017.4
20260903025903 77 349 0.0 0.0 0.00 0.00 0.00 81 1017.2
20260903025404 78 349 0.0 0.0 0.00 0.00 0.00 81 1017.2
20260903024903 78 349 0.0 0.0 0.00 0.00 0.00 81 1017.2
20260903024404 78 349 0.0 0.0 0.00 0.00 0.00 79 1017.2
20260903023904 78 348 0.0 0.0 0.00 0.00 0.00 79 1017.2
20260903023403 78 349 0.0 0.0 0.00 0.00 0.00 79 1017.2
20260903022903 78 349 0.0 0.0 0.00 0.00 0.00 79 1017.1
20260903022404 78 349 0.0 0.0 0.00 0.00 0.00 79 1017.1
20260903021904 78 349 0.0 0.0 0.00 0.00 0.00 79 1017.1
20260903021403 79 349 0.0 0.0 0.00 0.00 0.00 78 1017.0
20260903020903 79 349 0.0 0.0 0.00 0.00 0.00 78 1017.0
20260903020404 79 349 0.0 0.0 0.00 0.00 0.00 78 1017.0
20260903015904 79 349 0.0 0.0 0.00 0.00 0.00 77 1016.9
20260903015403 79 349 0.0 0.0 0.00 0.00 0.00 77 1016.9
20260903014904 79 349 0.0 0.0 0.00 0.00 0.00 77 1016.9
20260903014403 79 349 0.0 0.0 0.00 0.00 0.00 78 1016.8
20260903013903 80 349 0.0 0.0 0.00 0.00 0.00 76 1016.8
20260903013404 80 349 0.0 0.0 0.00 0.00 0.00 77 1016.8
20260903012403 80 349 0.0 1.0 0.00 0.00 0.00 76 1016.6
20260903011905 80 349 0.0 1.0 0.00 0.00 0.00 75 1016.6
20260903011403 81 349 0.0 1.0 0.00 0.00 0.00 75 1016.5
20260903010903 81 349 1.0 1.0 0.00 0.00 0.00 75 1016.5
20260903005903 81 349 0.0 0.0 0.00 0.00 0.00 73 1016.5
20260903005403 82 349 0.0 1.0 0.00 0.00 0.00 73 1016.5
20260903004905 82 348 0.0 1.0 0.00 0.00 0.00 74 1016.5
20260903004403 82 349 0.0 1.0 0.00 0.00 0.00 72 1016.3
20260903003405 83 349 0.0 0.0 0.00 0.00 0.00 71 1016.3
20260903002903 83 349 0.0 0.0 0.00 0.00 0.00 68 1016.3
20260903002403 84 349 0.0 1.0 0.00 0.00 0.00 68 1016.3
20260903001904 84 348 0.0 1.0 0.00 0.00 0.00 68 1016.3
20260903001403 84 349 0.0 1.0 0.00 0.00 0.00 67 1016.2
20260903000903 85 349 0.0 1.0 0.00 0.00 0.00 67 1016.2
20260903000404 85 349 0.0 0.0 0.00 0.00 0.00 66 1016.2
20260902235904 86 349 0.0 0.0 0.00 0.00 0.00 66 1016.2
20260902235403 86 349 0.0 0.0 0.00 0.00 0.00 66 1016.2
20260902234905 86 348 0.0 0.0 0.00 0.00 0.00 67 1016.2
20260902234403 87 348 0.0 0.0 0.00 0.00 0.00 66 1016.2
20260902233904 87 348 0.0 0.0 0.00 0.00 0.00 65 1016.2
20260902233404 88 348 0.0 0.0 0.00 0.00 0.00 64 1016.2
20260902232903 88 348 0.0 1.0 0.00 0.00 0.00 64 1016.2
20260902232403 88 348 0.0 0.0 0.00 0.00 0.00 63 1016.2
20260902230904 90 348 0.0 0.0 0.00 0.00 0.00 60 1016.2
20260902225404 91 348 0.0 1.0 0.00 0.00 0.00 58 1016.2
20260902224904 92 348 0.0 0.0 0.00 0.00 0.00 57 1016.2
20260902223903 92 348 0.0 0.0 0.00 0.00 0.00 56 1016.2
20260902223405 93 348 0.0 0.0 0.00 0.00 0.00 57 1016.2
20260902222403 95 348 0.0 0.0 0.00 0.00 0.00 53 1016.1
20260902221905 96 348 0.0 0.0 0.00 0.00 0.00 51 1016.2
20260902221403 96 348 0.0 0.0 0.00 0.00 0.00 52 1016.3
20260902220903 97 348 0.0 0.0 0.00 0.00 0.00 52 1016.4
20260902220404 97 349 0.0 0.0 0.00 0.00 0.00 52 1016.4
20260902215903 97 349 0.0 0.0 0.00 0.00 0.00 51 1016.4
20260902215403 97 348 0.0 0.0 0.00 0.00 0.00 52 1016.4
20260902214904 98 348 0.0 0.0 0.00 0.00 0.00 50 1016.4
20260902214404 98 348 0.0 0.0 0.00 0.00 0.00 50 1016.4
20260902213904 99 348 0.0 0.0 0.00 0.00 0.00 48 1016.4
20260902213404 99 349 0.0 0.0 0.00 0.00 0.00 49 1016.4
20260902212904 99 348 0.0 0.0 0.00 0.00 0.00 49 1016.5
20260902212403 100 349 0.0 0.0 0.00 0.00 0.00 49 1016.5
20260902211403 100 348 0.0 2.0 0.00 0.00 0.00 47 1016.6
20260902210903 100 349 1.0 2.0 0.00 0.00 0.00 48 1016.6
20260902210405 100 348 1.0 2.0 0.00 0.00 0.00 47 1016.6
20260902205903 100 222 1.0 2.0 0.00 0.00 0.00 43 1016.6
20260902204904 99 19 0.0 2.0 0.00 0.00 0.00 45 1016.6
20260902204403 100 18 0.0 2.0 0.00 0.00 0.00 47 1016.7
20260902203903 100 117 0.0 1.0 0.00 0.00 0.00 46 1016.7
20260902203405 99 117 0.0 1.0 0.00 0.00 0.00 46 1017.1
20260902202403 100 111 1.0 2.0 0.00 0.00 0.00 41 1017.1
20260902201905 100 22 0.0 1.0 0.00 0.00 0.00 43 1017.1
20260902201403 100 23 0.0 1.0 0.00 0.00 0.00 44 1017.1
20260902200904 99 6 0.0 3.0 0.00 0.00 0.00 45 1017.1